STARLINK-2047 (47355 NORAD) Tracking and Keplerian Element Data

This shows tracking and keplerian element data for the satellite.

Feedback or suggestion? Click here.




ElementValue
Catalog47355
NameSTARLINK-2047
Epoch Orbit182
Epoch Day99.91667824
Epoch Year2021
RAAN181.702
Inclination53.0547
Eccentricity0.0004184
Argument of Perigee4.4515
Mean Anonmoly67.0977
Mean Motion15.62676037
Decay Rate0.00013304
L11 47355U 21005G 21099.91667824 .00013304 00000-0 15132-3 0 9992
L22 47355 53.0547 181.7020 0004184 4.4515 67.0977 15.62676037 1825

Live tracking and technical data element details for STARLINK-2047 (NORAD 47355). STARLINK-2047 can be tracked NOW for your location showing map with azimuth and elevation plus other details from your city location.

Track the satellite on the map from your city or location and see movement details for azimuth, elevation, latitude, longitude, range, height, and movement on the map or in text.







IsCatalogInMostPopularTable: catalog: 47355, numindb: 12
Update: records affected: 1



GetName: 47355 STARLINK-2047

Hit Count: updated at: Sat, 10 Apr 2021 18:59:05 GMT